Weather History for Ubon Ratchathani, Thailand

Change the Weather History Date:

Monday, October 22, 2012

  Actual Average Record
Temperature  
Mean Temperature 82 °F -  
Max Temperature 92 °F 87 °F - ()
Min Temperature 71 °F 69 °F - ()
Cooling Degree Days 16    
Growing Degree Days 32 (Base 50)    
Moisture  
Dew Point 69 °F    
Average Humidity 69    
Maximum Humidity 94    
Minimum Humidity 49    
Precipitation  
Precipitation 0.00 in 0.06 in - ()
Sea Level Pressure  
Sea Level Pressure 29.85 in    
Wind  
Wind Speed 4 mph ()    
Max Wind Speed 9 mph    
Max Gust Speed -    
Visibility 5.7 miles    
Events      
T = Trace of Precipitation, MM = Missing Value Source: Averaged Metar Reports

Daily Weather History Graph

Daily Weather History Graph

Search for Another Location

Airport:

Trip Planner

Search our weather history database for the weather conditions in past years. The results will help you decide how hot, cold, wet, or windy it might be!

Date:

Astronomy

Oct. 22, 2012 Rise Set
Actual Time 5:53 AM ICT 5:35 PM ICT
Civil Twilight 5:31 AM ICT 5:57 PM ICT
Nautical Twilight 5:06 AM ICT 6:22 PM ICT
Astronomical Twilight 4:41 AM ICT 6:48 PM ICT
Moon 12:19 PM ICT No Moon Set
Length of Visible Light 12h 25m
Length of Day
11h 42m
Waxing Crescent, 51% of the Moon is Illuminated
Oct 22
Waxing Crescent
Oct 30
Full
Nov 7
Last Quarter
Nov 14
New
Nov 20
First Quarter

Hourly Weather History & Observations

Time (ICT) Temp. Heat Index Dew Point Humidity Pressure Visibility Wind Dir Wind Speed Gust Speed Precip Events Conditions
12:00 AM 75.2 °F - 69.8 °F 83% 29.86 in 5.6 mi NE 4.6 mph - N/A   Unknown
1:00 AM 75 °F - 71 °F 82% 29.85 in 6 mi NNE 4.6 mph - -   Mist
1:00 AM 75.2 °F - 69.8 °F 83% 29.83 in 5.6 mi NNE 4.6 mph - N/A   Unknown
2:00 AM 75.2 °F - 69.8 °F 83% 29.83 in 5.6 mi NE 3.5 mph - N/A   Unknown
4:00 AM 73.4 °F - 69.8 °F 88% 29.83 in 5.6 mi NNE 2.3 mph - N/A   Unknown
5:00 AM 73.4 °F - 69.8 °F 88% 29.83 in 5.6 mi NE 3.5 mph - N/A   Unknown
6:00 AM 71.6 °F - 69.8 °F 94% 29.86 in 5.0 mi NE 2.3 mph - N/A   Unknown
6:30 AM 73.4 °F - 69.8 °F 88% 29.86 in 5.0 mi NNE 2.3 mph - N/A   Unknown
7:00 AM 73 °F - 69 °F 83% 29.91 in 6 mi North 4.6 mph - -   Mist
7:00 AM 73.4 °F - 69.8 °F 88% 29.89 in 5.6 mi North 4.6 mph - N/A   Unknown
8:00 AM 75.2 °F - 68.0 °F 78% 29.92 in 5.6 mi NNE 4.6 mph - N/A   Unknown
9:00 AM 78.8 °F - 69.8 °F 74% 29.92 in 5.6 mi NNE 3.5 mph - N/A   Unknown
10:00 AM 82.4 °F 86.3 °F 69.8 °F 66% 29.92 in 5.6 mi NNE 4.6 mph - N/A   Unknown
11:00 AM 86.0 °F 90.4 °F 69.8 °F 58% 29.89 in 5.6 mi NW 3.5 mph - N/A   Unknown
12:00 PM 86.0 °F 91.8 °F 71.6 °F 62% 29.89 in 6.2 mi North 2.3 mph - N/A   Mostly Cloudy
1:00 PM 89.6 °F 94.7 °F 69.8 °F 52% 29.83 in 6.2 mi NE 5.8 mph - N/A   Mostly Cloudy
2:00 PM 89.6 °F 94.7 °F 69.8 °F 52% 29.80 in 6.2 mi NNE 2.3 mph - N/A   Mostly Cloudy
3:00 PM 89.6 °F 93.4 °F 68.0 °F 49% 29.80 in 6.2 mi North 5.8 mph - N/A   Mostly Cloudy
4:00 PM 89.6 °F 93.4 °F 68.0 °F 49% 29.77 in 6.2 mi North 3.5 mph - N/A   Mostly Cloudy
5:00 PM 89.6 °F 93.4 °F 68.0 °F 49% 29.80 in 6.2 mi NNE 4.6 mph - N/A   Mostly Cloudy
5:30 PM 87.8 °F 92.6 °F 69.8 °F 55% 29.80 in 5.6 mi North 2.3 mph - N/A   Mostly Cloudy
6:00 PM 86.0 °F 90.4 °F 69.8 °F 58% 29.80 in 5.6 mi North 3.5 mph - N/A   Mostly Cloudy
7:00 PM 84 °F - 71 °F 56% 29.83 in 5 mi NNE 3.5 mph - -   Haze
8:00 PM 82.4 °F 85.4 °F 68.0 °F 62% 29.86 in 5.6 mi NE 9.2 mph - N/A   Mostly Cloudy
9:00 PM 80.6 °F 82.7 °F 66.2 °F 61% 29.86 in 5.6 mi NNE 4.6 mph - N/A   Unknown
10:00 PM 80.6 °F 83.2 °F 68.0 °F 65% 29.86 in 5.6 mi North 4.6 mph - N/A   Unknown
11:00 PM 78.8 °F - 68.0 °F 69% 29.86 in 5.6 mi NNE 3.5 mph - N/A   Unknown